Погода в Нижневартовске

Погода в Нижневартовске : погода сейчас, прогноз погоды и архив. Всё, что Вы хотите узнать о погоде в Нижневартовске!

Поиск расширенной информации на нашем сайте:

Другие новости

Новости СМИ2

Главная страница сайта

Новости сайта

03.07.2017

Напоминаем, что на нашем специализированном сайте Метеоцентр.Азия вы можете получить высокодетализированные автоматические прогнозы погоды по пунктам России, СНГ и мира в авиационном формате (включающие направление и скорость ветра, видимость, явления погоды, количество и форму облачности, нижнюю и верхнюю границу облачности).

Рекомендуем: Отзывы: Горящие туры из кемерово - сезонные скидки.

Погода в Нижневартовске - сегодня

Время (UTC), дата Ветер
(°,м/с) 
Видим.   Явления Облачность Т
(°С)
Тd
(°С)
f(%) Тe
(°С)
Pmin
(гПа)
dP
(гПа)
Po
(мм)
O2
(г/м3)
Тmin Tmax R s Состояние
почвы
21 17.02.18 220 (ЮЗ) 20000 м    ясно 
-16.5 -17.8 90 -17  1026.8  -0.7  765  329           
00 18.02.18 220 (ЮЗ) 20000 м    ясно 
-17.6 -18.8 90 -18  1026.1  -0.8  764  331           
03 18.02.18 210 (ЮЗ) 20000 м    3/0 средняя 
[Ac trans]
-17.2 -18.4 90 -17  1025.7  -0.3  764  330  -17.8      58  неравномерный
сухой снег
100% 
06 18.02.18 220 (ЮЗ) 20000 м    10/6 930 м средняя 
[Sc|As op]
-12.8 -14.1 90 -16  1024.6  -1.1  763  324           
09 18.02.18 210 (ЮЗ) 20000 м    3/3 600 м 
[Sc]
-10.4 -11.7 90 -12  1024.2  -0.3  763  321           
15 18.02.18 230 (ЮЗ) 5000 м  слаб. ливневой снег  10/8 1080 м кучево-дожд., средняя 
[Cb calv|As op]
-9 -9.7 95 -13  1023.7  -0.2  762  319    -8.5  0.3     
21 18.02.18 240 (ЮЗ) 20000 м    9/9 660 м кучево-дожд. 
[Cb calv]
-10 -11.3 90 -13  1022.9  762  320           
03 19.02.18 230 (ЮЗ) 20000 м  {ливн. осадки}  10/10 210 м 
[St]
-9.9 -10.7 94 -13  1023.5  0.6  762  320  -10.2    0.2  59  неравномерный
сухой снег
100% 
12 19.02.18 270 (З) 20000 м  {снег}  8/4 1000 м средняя 
[Sc|Ac trans]
-7.8 -9.6 87 -8  1024.8  1.5  763  318           
15 19.02.18 240 (ЮЗ) 7000 м  слаб. снег  10/8 700 м средняя 
[Sc|As trans]
-9 -9.7 95 -9  1025.6  0.8  764  319    -5.5  0.4     
21 19.02.18 300 (СЗ) 20000 м    3/3 300 м 
[St]
-12 -12.6 95 -12  1026.4  0.8  764  323           
00 20.02.18 тихо ()   0200 м  переохл. туман  ?/?  
-14.3 -14.9 95 -14  1026.8  0.3  765  326           
03 20.02.18 160 (Ю) 20000 м  {туман}  9/0 средняя 
[Ac trans]
-13.6 -14.9 90 -14  1026.5  -0.3  764  325    -14.3  0.0  60  неравномерный
сухой снег
100% 
06 20.02.18 130 (ЮВ) 10 км  снежные кристаллы{туман}  10/0 средняя 
[As op]
-9.9 -10.7 94 -12  1025.3  -1.1  764  320           
12 20.02.18 090 (В) 10 км  снежные кристаллы  10/0 средняя 
[As op]
-8.4 -9.9 89 -11  1024.2  -0.5  763  318           
15 20.02.18 110 (В) 20000 м  в посл. час снег  10/5 420 м средняя 
[Frnb|As op]
-9.4 -10.6 91 -11  1024  -0.2  763  319    -7.8  0.9     
03 21.02.18 080 (В) 8000 м  слаб. снег  10/0 средняя 
[As op]
-12.9 -14.2 90 -16  1023.1  -0.4  762  324  -12.9    0.4  62  неравномерный
сухой снег
100% 
09 21.02.18 090 (В) 5000 м  снежные кристаллы  10/0 средняя 
[As trans]
-10.1 -12.9 80 -15  1022.4  -0.8  761  320           
12 21.02.18 090 (В) 5000 м  снежные кристаллы  10/0 средняя 
[As trans]
-9.4 -11.5 85 -15  1021.3  -1  761  319           
15 21.02.18 090 (В) 8000 м  слаб. снег  10/0 средняя 
[As op]
-10.8 -12.8 85 -16  1019.8  -1.5  759  320    -9.4  0.6     
03 22.02.18 080 (В) 8-12{13}  20000 м  позёмок  10/0 средняя 
[As op]
-11.6 -13.6 85 -18  1012.9  -1.6  754  319  -11.6    0.0  59  неравномерный
сухой снег
100% 
15 22.02.18 070 (В) 2100 м  снег  10/10 930 м 
[Ns]
-12.1 -14.1 85 -16  1013.7  0.6  755  320    -9     
03 23.02.18 060 (СВ) 20000 м  в посл. час снег  5/5 630 м 
[Sc]
-18.2 -20.1 85 -18  1014.7  0.1  755  328  -18.3    859  лёд 
06 23.02.18 180 (Ю) 20000 м  в посл. час ливневой снег  5/3 600 м кучево-дожд., верхняя 
[Cb calv|Ci fib]
-15.6 -18.3 80 -16  1014.5  755  324           
09 23.02.18 250 (З) 9000 м  слаб. ливневой снег  10/4 600 м кучево-дожд., верхняя 
[Cb calv|Ci fib]
-14.4 -17.9 75 -17  1015  0.5  756  323           
Время (UTC), дата Ветер
(°,м/с) 
Видим.   Явления Облачность Т
(°С)
Тd
(°С)
f(%) Тe
(°С)
Pmin
(гПа)
dP
(гПа)
Po
(мм)
O2
(г/м3)
Тmin Tmax R s Состояние
почвы

Для получения пояснительной информации подведите курсор к названию столбца.

ПОГОДА в Нижневартовске - архив

Всё, что Вы хотите узнать о погоде в Нижневартовске - удобно и подробно!

Выберите нужную дату (начиная с 1 января 2015* года) и нажмите кнопку "Найти".
Будут отображены архивные сводки погоды по пункту Нижневартовск, начиная с указанной даты.


Отображать данные в формате CSV (для использования в таблицах Excel)


Внимание! Наш архив погоды предназначен исключительно для личного некоммерческого использования в познавательных целях. Если Вам необходимы официальные справки о состоянии погоды (для производственных, юридических, коммерческих и т.п. целей), обращайтесь в органы Росгидромета.

*Примечание: данная дата относится к архиву по метеостанциям СССР (Россия, СНГ, Балтия).
Архив по метеостанциям Зарубежной Европы и Азии (кроме Китая) хранится 10 дней, по другим регионам земного шара (Китай, Африка, Америка, Австралия, Океания) - 1 день.

Нижневартовск - район местоположения метеостанции


Название, широта, долгота, высота метеостанции:
Нижневартовск 60.8°ш. 76.7°д. 44 м над ур. моря [Российская Федерация]

Дополнительная информация

В oтличие oт бoльшинства пoгoдных сайтoв мы публикуем пoдрoбную метеoинфoрмацию в детальнoм прoфессиoнальнoм фoрмате.

Характеристики температуры и влажнoсти вoздуха измеряются на высoте 2 м в тени вдали oт зданий и деревьев.
Скoрoсть ветра измеряется на высoте 10 м (на урoвне рoста челoвека скoрoсть ветра ниже в 1.5-2 раза). Если метеoстанция нахoдится в гoрoде или в лесу, тo скoрoсть ветра занижена на 2-4 м/с пo сравнению с oткрытым местoм. Скoрoсть ветра над акватoриями крупных рек и oзёр, а также на вершинах хoлмoв на 2-5 м/с выше, чем в oбычных услoвиях.
Атмoсфернoе давление в разных тoчках местнoсти мoжет значительнo oтличаться oт давления на метеoстанции, в зависимoсти oт услoвий рельефа (при пoдъёме на 10 м давление пoнижается примернo на 1 мм рт.ст.).